Weather History for Hearne, TX

Change the Weather History Date:

Thursday, January 10, 2013

  Actual Average (KCLL) Record (KCLL)
Temperature  
Mean Temperature 57 °F 51 °F  
Max Temperature 64 °F 61 °F 81 °F (1963)
Min Temperature 50 °F 41 °F 14 °F (1962)
Degree Days  
Heating Degree Days 8 15  
Month to date heating degree days 150  
Since 1 July heating degree days 786  
Cooling Degree Days 0 0  
Month to date cooling degree days 0  
Year to date cooling degree days 0  
Growing Degree Days 7 (Base 50)    
Moisture  
Dew Point 44 °F    
Average Humidity 61    
Maximum Humidity 77    
Minimum Humidity 34    
Precipitation  
Precipitation 0.01 in 0.10 in 1.97 in (1931)
Month to date precipitation 1.02  
Year to date precipitation 1.02  
Sea Level Pressure  
Sea Level Pressure 30.02 in    
Wind  
Wind Speed 2 mph (SW)    
Max Wind Speed 13 mph    
Max Gust Speed 16 mph    
Visibility 9 miles    
Events      
T = Trace of Precipitation, MM = Missing Value Source: NWS Daily Summary

Daily Weather History Graph

Daily Weather History Graph

Search for Another Location

Airport:

Trip Planner

Search our weather history database for the weather conditions in past years. The results will help you decide how hot, cold, wet, or windy it might be!

Date:

Astronomy

Jan. 10, 2013 Rise Set
Actual Time 7:25 AM CST 5:43 PM CST
Civil Twilight 6:59 AM CST 6:09 PM CST
Nautical Twilight 6:29 AM CST 6:39 PM CST
Astronomical Twilight 6:00 AM CST 7:08 PM CST
Moon 6:06 AM CST (1/10) 4:51 PM CST (1/10)
Length of Visible Light 11h 10m
Length of Day
10h 17m
Waning Crescent, 2% of the Moon is Illuminated
Jan 10
Waning Crescent
Jan 11
New
Jan 18
First Quarter
Jan 26
Full
Feb 3
Last Quarter

Hourly Weather History & Observations

Time (CST) Temp. Dew Point Humidity Pressure Visibility Wind Dir Wind Speed Gust Speed Precip Events Conditions
12:15 AM 64.4 °F 57.2 °F 77% 30.01 in 10.0 mi Calm Calm - N/A   Overcast
12:35 AM 62.6 °F 55.4 °F 77% 30.01 in 10.0 mi Calm Calm - N/A   Mostly Cloudy
12:55 AM 62.6 °F 53.6 °F 72% 30.00 in 7.0 mi Calm Calm - N/A   Scattered Clouds
2:15 AM 60.8 °F 53.6 °F 77% 30.01 in 10.0 mi Calm Calm - N/A   Clear
2:35 AM 60.8 °F 53.6 °F 77% 30.01 in 7.0 mi Calm Calm - N/A   Clear
2:55 AM 60.8 °F 53.6 °F 77% 30.02 in 5.0 mi Calm Calm - N/A   Haze
3:15 AM 60.8 °F 53.6 °F 77% 30.01 in 7.0 mi Calm Calm - N/A   Clear
3:35 AM 60.8 °F 53.6 °F 77% 30.02 in 7.0 mi SSE 8.1 mph - N/A   Clear
3:55 AM 60.8 °F 51.8 °F 72% 30.02 in 7.0 mi SSE 9.2 mph - N/A   Clear
4:15 AM 59.0 °F 51.8 °F 77% 30.01 in 7.0 mi Calm Calm - N/A   Scattered Clouds
4:35 AM 59.0 °F 51.8 °F 77% 29.99 in 7.0 mi South 9.2 mph - N/A   Mostly Cloudy
4:55 AM 59.0 °F 51.8 °F 77% 29.99 in 7.0 mi Calm Calm - N/A   Scattered Clouds
5:15 AM 57.2 °F 50.0 °F 77% 29.98 in 7.0 mi Calm Calm - N/A   Clear
5:35 AM 57.2 °F 50.0 °F 77% 29.99 in 7.0 mi Calm Calm - N/A   Clear
5:55 AM 55.4 °F 48.2 °F 77% 30.00 in 5.0 mi Calm Calm - N/A   Haze
6:35 AM 53.6 °F 46.4 °F 77% 30.00 in 10.0 mi Calm Calm - N/A   Clear
6:55 AM 53.6 °F 46.4 °F 77% 30.00 in 10.0 mi Calm Calm - N/A   Clear
7:15 AM 53.6 °F 46.4 °F 77% 30.01 in 7.0 mi Calm Calm - N/A   Clear
7:35 AM 53.6 °F 46.4 °F 77% 30.01 in 7.0 mi Calm Calm - N/A   Clear
7:55 AM 53.6 °F 46.4 °F 77% 30.01 in 7.0 mi Calm Calm - N/A   Scattered Clouds
8:35 AM 53.6 °F 46.4 °F 77% 30.02 in 10.0 mi Calm Calm - N/A   Clear
8:55 AM 55.4 °F 46.4 °F 72% 30.01 in 10.0 mi Calm Calm - N/A   Clear
9:15 AM 57.2 °F 46.4 °F 67% 30.02 in 10.0 mi Calm Calm - N/A   Clear
9:35 AM 59.0 °F 46.4 °F 63% 30.02 in 10.0 mi Calm Calm - N/A   Clear
9:55 AM 59.0 °F 44.6 °F 59% 30.03 in 10.0 mi Calm Calm - N/A   Clear
10:15 AM 60.8 °F 42.8 °F 52% 30.07 in 10.0 mi WSW 12.7 mph - N/A   Scattered Clouds
10:35 AM 59.0 °F 42.8 °F 55% 30.09 in 10.0 mi West 5.8 mph - N/A   Scattered Clouds
10:55 AM 59.0 °F 41.0 °F 51% 30.08 in 10.0 mi West 8.1 mph - N/A   Scattered Clouds
11:15 AM 60.8 °F 42.8 °F 52% 30.07 in 10.0 mi SW 8.1 mph - N/A   Clear
11:35 AM 60.8 °F 41.0 °F 48% 30.05 in 10.0 mi West 11.5 mph - N/A   Scattered Clouds
11:55 AM 60.8 °F 37.4 °F 42% 30.05 in 10.0 mi WSW 11.5 mph 16.1 mph N/A   Scattered Clouds
12:15 PM 60.8 °F 37.4 °F 42% 30.04 in 10.0 mi SW 9.2 mph - N/A   Clear
12:35 PM 60.8 °F 37.4 °F 42% 30.03 in 10.0 mi WSW 12.7 mph 16.1 mph N/A   Clear
12:55 PM 60.8 °F 37.4 °F 42% 30.03 in 10.0 mi West 8.1 mph - 0.01 in   Clear
1:35 PM 62.6 °F 35.6 °F 37% 30.01 in 10.0 mi WSW 3.5 mph - N/A   Clear
1:55 PM 62.6 °F 35.6 °F 37% 30.00 in 10.0 mi Calm Calm - N/A   Clear
2:15 PM 64.4 °F 35.6 °F 34% 30.00 in 10.0 mi Calm Calm - N/A   Clear
2:35 PM 64.4 °F 35.6 °F 34% 30.01 in 10.0 mi SSW 6.9 mph - N/A   Clear
2:55 PM 64.4 °F 35.6 °F 34% 30.00 in 10.0 mi SW 6.9 mph - N/A   Clear
3:15 PM 64.4 °F 35.6 °F 34% 30.01 in 10.0 mi WSW 3.5 mph - N/A   Clear
3:35 PM 64.4 °F 35.6 °F 34% 30.00 in 10.0 mi Calm Calm - N/A   Clear
3:55 PM 64.4 °F 35.6 °F 34% 30.00 in 10.0 mi Calm Calm - N/A   Clear
4:15 PM 64.4 °F 35.6 °F 34% 30.00 in 10.0 mi Calm Calm - N/A   Clear
4:35 PM 64.4 °F 35.6 °F 34% 30.01 in 10.0 mi Calm Calm - N/A   Clear
4:55 PM 64.4 °F 35.6 °F 34% 30.00 in 10.0 mi Calm Calm - N/A   Clear
5:15 PM 64.4 °F 37.4 °F 37% 30.01 in 10.0 mi Calm Calm - N/A   Clear
5:35 PM 62.6 °F 37.4 °F 39% 30.01 in 10.0 mi Calm Calm - N/A   Clear
5:55 PM 60.8 °F 39.2 °F 45% 30.01 in 10.0 mi Calm Calm - N/A   Clear
6:15 PM 60.8 °F 41.0 °F 48% 30.01 in 10.0 mi Calm Calm - N/A   Clear
6:35 PM 57.2 °F 42.8 °F 59% 30.01 in 10.0 mi Calm Calm - N/A   Clear
6:55 PM 55.4 °F 42.8 °F 63% 30.01 in 10.0 mi Calm Calm - N/A   Clear
7:15 PM 53.6 °F 42.8 °F 67% 30.01 in 10.0 mi Calm Calm - N/A   Clear
7:35 PM 53.6 °F 42.8 °F 67% 30.01 in 10.0 mi Calm Calm - N/A   Clear
7:55 PM 51.8 °F 42.8 °F 71% 30.01 in 10.0 mi Calm Calm - N/A   Clear
8:15 PM 51.8 °F 42.8 °F 71% 30.01 in 10.0 mi Calm Calm - N/A   Clear
8:35 PM 51.8 °F 42.8 °F 71% 30.02 in 10.0 mi Calm Calm - N/A   Clear
8:55 PM 51.8 °F 41.0 °F 67% 30.02 in 10.0 mi Calm Calm - N/A   Clear
9:15 PM 50.0 °F 41.0 °F 71% 30.02 in 10.0 mi Calm Calm - N/A   Clear
9:35 PM 50.0 °F 42.8 °F 76% 30.02 in 10.0 mi Calm Calm - N/A   Clear
9:55 PM 50.0 °F 42.8 °F 76% 30.02 in 10.0 mi Calm Calm - N/A   Clear
10:15 PM 50.0 °F 42.8 °F 76% 30.02 in 10.0 mi Calm Calm - N/A   Clear
10:35 PM 50.0 °F 42.8 °F 76% 30.02 in 10.0 mi Calm Calm - N/A   Clear
10:55 PM 50.0 °F 41.0 °F 71% 30.02 in 10.0 mi Calm Calm - N/A   Clear
11:15 PM 51.8 °F 41.0 °F 67% 30.02 in 10.0 mi Calm Calm - N/A   Clear
11:35 PM 51.8 °F 41.0 °F 67% 30.02 in 10.0 mi Calm Calm - N/A   Clear
11:55 PM 51.8 °F 41.0 °F 67% 30.03 in 10.0 mi Calm Calm - N/A   Clear